{"data":{"norad_id":66292,"epoch":"2026-05-25T04:39:15.556320Z","epoch_age_seconds":59071,"freshness":"FRESH","line1":"1 66292U 25247AD  26145.19393005  .00015565  00000+0  47075-3 0  9990","line2":"2 66292  53.1591 194.8909 0001183  73.6117 286.5016 15.34406725 32751","mean_motion":15.34406725,"eccentricity":0.0001183,"inclination_deg":53.1591,"raan_deg":194.8909,"arg_perigee_deg":73.6117,"mean_anomaly_deg":286.5016,"bstar":0.00047075,"rev_number":3275,"period_min":93.847346765246,"perigee_km":461.87398312705,"apogee_km":463.49252119871,"semimajor_km":6840.8202521629,"source":"CELESTRAK","updated_at":"2026-05-25T13:38:21.165965Z"}}